Theta_e
310 309 308 307 307 307 307 308 308 307 309 313 313 315 313 312 315 315 314 313 313 310 310 313 313 315 316 320 320 319 323 321 319 320 320 318 318 318 316 315 315 314 315 314 313
311 309 309 307 308 309 309 309 308 308 308 312 313 315 313 313 317 316 313 313 315 313 313 314 317 316 319 319 320 321 322 320 318 318 319 318 317 316 316 317 315 314 315 311 308
313 309 309 308 308 310 310 310 309 309 308 311 314 315 315 313 318 316 314 315 314 312 311 312 314 317 320 319 319 320 320 318 317 317 317 316 316 314 315 316 313 314 313 308 306
314 309 309 308 309 311 312 311 310 310 309 311 314 314 314 315 320 314 314 315 312 311 312 315 317 318 319 319 318 318 317 317 317 315 315 315 314 315 315 313 310 312 308 306 305
316 310 310 309 310 312 314 312 312 312 310 311 314 316 316 319 317 313 316 314 313 311 313 315 316 317 318 317 317 318 317 315 314 314 314 314 314 314 314 311 311 308 305 305 304
317 311 311 310 310 312 314 313 315 314 311 312 315 316 319 320 312 314 313 311 311 312 314 314 315 315 318 317 317 317 315 315 313 314 313 314 314 313 314 309 309 305 304 304 303
319 313 311 310 310 311 315 314 316 316 312 313 316 317 320 318 312 315 311 310 310 309 314 310 310 315 316 318 314 314 316 315 314 313 313 314 314 314 312 307 309 305 304 303 302
319 315 311 310 309 310 314 317 317 315 311 315 316 318 319 312 313 313 311 311 308 308 309 307 309 313 314 314 315 316 316 316 315 313 313 313 313 314 309 308 307 303 302 302 302
320 316 311 310 307 310 312 318 318 312 312 316 318 318 318 314 316 313 311 310 309 309 308 306 310 314 315 317 318 318 318 317 314 313 313 313 314 315 307 307 303 302 301 300 301
320 315 310 308 306 309 311 320 315 312 314 315 316 319 315 317 315 311 309 308 312 312 314 315 315 315 319 314 316 314 314 315 316 313 314 314 313 310 305 304 301 300 299 299 299
320 316 309 305 304 307 309 315 319 320 314 316 315 316 316 315 311 311 308 310 312 314 319 316 314 316 317 312 312 313 315 315 313 314 312 310 309 308 302 301 301 299 298 297 297
320 317 308 303 303 306 310 314 312 312 315 313 315 316 315 312 313 312 309 312 314 318 317 318 320 314 311 312 314 314 313 311 312 313 310 308 308 306 301 298 299 298 297 297 296
320 318 307 302 305 310 311 310 309 312 316 316 315 317 316 311 313 312 310 311 314 318 317 315 316 309 312 314 313 312 310 312 311 310 309 308 308 306 300 298 298 298 297 296 295
320 318 308 301 309 308 314 306 311 311 319 319 317 316 310 309 312 308 306 309 314 314 311 309 309 312 313 312 310 311 308 308 308 309 308 307 307 308 302 301 298 298 297 296 295
320 319 311 300 307 312 308 308 309 310 330 316 317 309 310 311 311 312 306 308 312 312 308 311 307 309 309 310 309 310 304 306 307 308 307 307 307 309 307 306 298 297 295 294 294
319 319 313 304 304 307 306 310 308 320 327 319 317 316 314 310 311 311 310 308 308 308 308 308 308 309 311 309 306 303 306 305 306 306 308 308 305 307 306 301 297 296 295 294 294
318 318 315 300 310 305 308 311 321 322 319 320 317 314 314 316 314 311 311 311 312 313 315 311 310 308 305 308 307 305 305 306 312 314 314 304 302 303 299 296 296 295 294 293 293
317 317 315 304 303 305 313 316 323 322 324 314 314 313 316 315 315 310 310 313 310 309 309 311 312 309 305 306 306 304 303 304 306 309 308 303 301 303 299 296 296 295 293 293 292
317 313 310 308 303 307 309 319 318 321 320 317 315 318 320 312 309 310 311 314 310 309 310 309 307 303 299 301 302 306 304 302 302 303 300 303 302 299 298 296 296 294 293 292 292
313 310 313 310 304 311 308 318 318 318 313 314 319 319 320 319 314 313 314 310 307 305 304 307 306 305 298 298 297 299 300 300 299 301 304 304 302 301 297 296 294 293 292 292 292
311 312 310 307 310 310 313 316 315 316 313 316 318 319 318 316 316 316 316 310 306 302 302 303 302 302 299 299 301 297 297 295 296 298 298 300 302 297 295 295 293 292 292 292 292
308 317 308 310 312 312 314 315 313 311 310 314 312 315 317 316 318 316 315 313 304 301 302 300 301 301 301 296 294 294 296 296 296 298 295 296 297 297 296 295 293 292 291 292 292
308 310 308 310 316 316 313 312 310 311 311 312 312 311 313 314 314 313 313 299 302 300 301 297 299 300 301 295 293 294 294 295 296 294 297 297 297 296 295 296 293 291 291 292 290
310 315 311 310 312 316 317 316 314 312 312 312 313 314 313 310 311 313 308 297 297 298 295 297 297 300 306 306 294 293 294 294 294 296 297 296 296 296 296 294 292 291 291 291 289
309 313 313 315 313 314 317 317 318 319 314 312 312 313 313 312 313 310 307 297 295 295 295 295 298 298 298 298 296 295 294 293 293 294 295 296 295 295 294 293 290 291 291 290 289
319 316 307 313 317 315 316 318 318 318 318 315 313 313 309 311 312 316 306 305 301 296 296 296 297 295 294 294 294 294 294 294 294 293 293 294 294 294 294 291 291 291 290 289 289
315 307 311 318 317 319 318 317 318 317 317 316 316 314 312 308 304 302 303 302 303 299 297 295 295 296 298 294 293 296 295 294 294 294 293 293 294 294 291 290 291 290 289 289 287
Wind_Speed
20 23 25 25 27 27 28 27 27 30 27 22 24 11 7 9 10 8 11 9 13 14 9 7 4 3 2 1 1 3 4 1 2 3 3 3 7 7 1 3 8 6 13 19 20
20 23 25 26 27 28 28 27 27 29 29 22 22 8 10 7 5 16 9 16 16 13 6 7 4 5 2 1 1 3 3 4 5 6 7 9 7 8 5 11 13 14 17 22 20
20 22 24 26 28 27 28 28 26 28 30 21 19 7 4 5 2 5 13 18 11 7 4 6 6 4 4 1 2 2 4 3 3 4 8 8 4 3 6 11 11 14 16 17 20
19 22 24 26 27 27 28 27 27 29 29 20 16 4 4 3 2 5 15 14 11 8 5 7 4 5 5 4 3 4 4 0 1 4 7 7 6 4 12 10 15 15 15 16 17
19 22 24 26 27 27 28 26 27 30 28 19 16 2 1 3 5 8 12 10 7 5 6 7 5 5 4 4 5 3 5 1 3 8 6 6 6 4 11 14 16 16 15 15 16
19 21 24 26 27 27 28 26 27 29 27 19 14 1 2 2 3 7 8 7 10 7 6 6 6 4 4 3 3 2 6 5 1 2 3 7 2 4 4 15 18 14 13 14 16
19 20 23 25 26 26 27 25 27 28 25 19 7 3 5 4 2 8 9 4 8 6 3 3 3 4 4 4 3 4 4 9 6 2 2 11 7 5 6 13 13 11 12 12 16
20 20 22 24 26 26 25 24 25 25 17 15 4 1 3 0 2 7 9 4 5 4 2 2 1 4 3 2 5 3 2 3 6 3 3 10 12 7 14 10 11 7 8 9 13
21 20 21 24 25 25 23 24 21 20 10 7 2 3 3 0 2 8 7 6 6 2 1 2 2 2 4 7 10 9 5 9 5 5 2 5 13 7 12 12 10 6 10 12 13
21 20 21 23 23 24 23 21 18 7 11 1 3 2 3 1 4 8 7 6 4 8 4 4 4 6 7 8 9 12 12 8 11 2 10 9 14 15 12 13 8 8 10 12 13
21 21 19 21 21 19 22 10 7 3 9 2 10 4 2 6 1 3 5 7 4 6 10 4 6 10 4 6 10 10 11 13 14 7 7 12 15 7 13 9 6 7 9 12 15
19 20 18 20 19 13 12 5 3 2 8 3 3 4 3 1 2 4 9 5 5 14 10 12 13 4 6 6 6 11 15 15 7 3 11 15 17 17 13 7 5 5 9 13 15
17 19 16 17 12 8 7 3 1 1 5 1 2 2 1 1 1 2 8 3 5 12 12 10 13 3 5 8 12 13 14 9 10 13 17 14 18 15 14 10 5 4 8 12 17
14 16 14 14 2 5 2 6 1 1 5 4 4 3 2 1 2 3 4 3 4 9 7 10 4 4 8 12 4 12 5 9 14 13 11 17 8 13 18 14 4 5 11 16 21
12 14 14 9 5 4 3 2 2 2 6 2 4 2 1 3 1 3 1 3 9 15 2 3 5 8 11 7 3 6 9 10 16 18 21 13 7 10 18 15 2 7 13 18 21
11 12 13 5 3 3 3 2 1 4 8 3 2 2 3 3 2 2 2 2 1 6 8 15 0 3 5 2 3 9 10 18 20 12 6 2 3 7 4 2 3 10 16 22 21
12 12 11 4 1 3 2 2 5 6 3 5 2 1 1 4 4 2 3 6 6 6 7 6 9 2 3 6 6 7 9 7 4 5 9 10 8 11 10 5 5 12 19 20 19
14 13 11 7 5 3 2 4 8 8 8 3 2 1 5 5 3 2 4 9 9 7 8 7 9 8 3 3 5 1 3 4 7 6 13 14 9 5 13 8 2 13 19 19 21
13 9 7 7 9 7 4 8 6 3 2 4 4 7 11 2 4 4 10 13 3 11 8 4 6 3 3 1 2 6 5 4 5 4 6 8 10 6 11 4 7 17 19 19 21
4 4 7 9 9 5 6 16 12 2 3 3 7 7 14 12 5 5 4 6 5 7 2 1 9 5 4 0 1 4 5 2 4 5 7 8 19 12 6 8 13 20 20 20 23
4 3 4 9 9 5 11 12 16 13 9 8 12 16 13 13 14 15 10 7 9 8 6 1 5 4 3 9 12 5 5 6 4 4 5 9 6 5 4 5 15 19 19 22 23
5 4 6 14 7 6 13 11 8 10 11 10 5 15 20 17 18 13 14 8 11 12 9 6 4 9 13 3 6 7 11 14 6 7 8 9 15 14 5 4 13 18 20 22 22
3 3 6 6 9 13 12 14 10 14 11 10 12 9 9 16 9 16 15 4 10 11 12 8 6 4 4 3 3 6 11 17 15 5 15 10 9 8 11 19 18 19 20 20 22
4 5 3 4 8 16 19 23 23 12 19 19 16 15 11 10 15 12 8 4 6 9 4 7 7 12 12 13 1 6 13 17 17 12 16 21 29 20 21 17 20 20 20 21 22
5 6 6 7 9 20 22 16 19 22 14 7 10 23 17 12 16 18 16 7 4 5 5 5 10 14 18 19 16 16 16 18 22 24 21 28 21 21 19 19 17 20 21 23 23
9 6 3 6 14 20 22 22 30 27 21 16 21 15 18 27 24 21 8 6 6 13 13 6 5 5 6 13 15 19 19 21 23 24 26 25 29 21 18 12 17 20 22 21 21
21 4 5 14 15 16 20 28 30 21 24 28 25 19 20 23 7 4 7 6 7 13 15 8 6 5 8 4 9 14 21 25 26 21 20 20 24 18 14 13 16 20 19 19 21
Wind_Direction
8 9 10 9 9 9 8 4 3 5 7 4 6 25 103 90 58 51 46 348 336 340 336 306 293 320 248 125 358 307 245 281 54 308 356 96 334 6 12 294 49 36 29 8 7
4 5 4 5 5 5 4 1 1 1 4 6 4 26 137 104 81 62 6 347 336 338 343 343 344 319 232 216 175 279 286 63 25 328 317 335 353 340 339 52 22 9 10 29 28
360 1 360 0 1 1 1 360 359 358 2 3 4 15 202 208 218 25 348 349 348 345 318 318 305 295 269 269 46 34 348 45 55 318 325 329 341 333 334 61 22 355 8 36 32
355 357 357 357 357 357 358 358 356 355 357 360 3 23 113 176 17 357 344 357 6 7 329 318 291 309 294 310 50 293 68 360 244 301 321 341 318 44 63 67 9 38 52 43 37
351 353 353 354 355 353 355 354 353 351 354 355 357 9 173 92 58 333 348 4 7 15 20 360 347 335 315 327 311 240 101 45 303 300 312 331 359 73 73 19 51 71 54 42 38
348 350 351 351 351 350 350 352 349 345 348 349 354 32 238 163 315 342 354 7 21 13 10 8 354 335 262 271 263 9 303 277 97 321 292 352 330 197 75 15 79 72 57 42 33
344 346 348 349 349 348 347 348 344 338 344 347 359 91 77 97 351 359 354 22 22 9 338 34 355 279 350 284 61 305 297 113 151 210 290 317 193 166 5 31 88 57 44 39 28
342 344 345 347 347 346 344 344 336 334 344 348 20 9 75 38 7 359 2 308 357 358 44 358 329 284 261 327 188 210 225 5 129 234 168 325 304 103 33 80 107 69 47 28 24
341 341 344 346 345 344 342 340 325 331 356 352 9 331 142 76 338 339 353 319 311 324 295 276 236 287 208 284 300 205 332 315 299 211 213 318 297 318 67 115 118 69 34 16 8
339 339 344 344 343 342 343 336 321 346 356 323 29 210 147 75 319 332 329 328 311 308 260 262 254 273 233 346 317 303 303 300 291 36 312 277 279 314 95 123 111 57 27 17 13
335 341 344 342 341 344 352 348 342 220 30 341 313 278 353 326 330 336 343 320 290 261 327 340 298 299 322 326 303 299 290 293 290 112 306 304 300 335 123 136 120 51 24 18 17
328 338 343 343 340 348 17 46 50 329 309 187 241 269 254 315 246 23 352 303 317 317 318 298 290 19 312 301 292 293 291 298 313 191 310 308 297 134 156 140 120 38 22 14 1
323 337 342 341 343 8 48 66 253 31 266 200 206 263 121 239 10 6 348 331 307 306 317 284 293 325 287 295 295 288 302 316 298 305 282 286 283 157 173 153 137 46 5 3 356
316 334 340 341 24 355 27 345 76 223 272 162 180 151 163 119 215 49 31 336 287 302 320 283 2 300 284 278 300 297 12 316 304 310 302 317 290 169 181 179 130 23 8 357 352
305 327 338 346 318 314 280 339 95 270 291 105 146 109 117 232 59 158 127 199 274 293 243 295 294 289 281 300 331 297 342 303 290 285 298 277 242 258 166 200 103 10 3 358 354
294 320 332 339 321 260 309 105 269 246 245 161 140 164 222 190 185 6 248 179 296 273 243 268 296 256 288 265 266 303 287 299 276 268 263 142 260 237 183 181 356 358 358 354 349
280 306 320 305 271 265 138 240 269 235 108 171 189 205 306 289 294 324 273 240 262 284 246 195 216 176 247 259 210 261 307 313 298 232 276 152 317 248 142 128 36 356 356 348 344
274 295 303 265 246 214 171 234 248 261 246 89 135 164 246 350 207 223 239 272 211 244 282 275 267 186 141 269 342 316 291 263 288 295 294 313 254 294 135 140 25 355 355 347 339
258 285 274 257 216 179 219 226 255 270 57 174 198 259 274 195 262 255 234 254 265 202 219 252 248 124 32 341 286 139 215 14 288 261 278 237 239 142 159 214 354 344 349 342 333
228 257 245 232 186 187 220 234 242 150 147 215 253 240 270 280 218 225 255 170 204 210 198 360 284 173 116 208 155 264 123 180 201 270 269 268 299 273 187 340 340 345 340 335 329
198 246 184 175 156 214 223 227 245 239 196 221 249 257 260 273 263 272 259 185 187 171 195 169 236 149 149 209 225 186 217 222 285 241 263 299 283 114 5 358 345 333 336 331 330
171 234 165 154 193 216 229 238 230 226 217 248 283 261 264 264 274 245 253 240 161 159 172 187 248 253 246 46 285 273 244 215 217 216 226 266 275 281 224 355 344 333 332 330 329
203 227 175 201 222 229 239 249 254 232 216 209 231 224 250 254 260 237 257 47 178 181 177 174 206 250 236 244 181 216 222 234 234 308 245 251 256 155 211 328 340 329 326 325 328
162 228 176 210 272 253 245 242 240 210 253 241 250 245 232 243 235 263 221 181 206 217 75 188 228 229 255 295 101 215 215 216 213 240 259 240 270 274 291 313 324 320 322 322 321
185 222 196 205 221 236 240 252 250 244 218 230 247 231 226 247 234 239 240 132 194 205 199 218 252 241 262 273 278 259 255 222 221 236 244 269 262 278 298 315 320 314 320 323 318
213 202 185 265 230 213 224 232 240 241 238 225 234 225 218 233 224 264 202 158 186 197 200 205 251 291 273 267 274 271 257 247 246 242 246 258 271 275 284 316 309 316 318 314 322
219 172 199 231 222 233 221 232 242 240 242 244 246 243 238 239 258 87 121 177 214 189 204 198 203 197 263 9 318 280 246 238 240 232 235 246 256 279 291 309 311 312 309 314 322